Find NNS 30060

NORAD ID: 1864 Int'l Des: 1965-109 Owner: BUWEPS Country: US operational
LEOPOLAR

リアルタイム位置

3D地球を読み込み中...

NNS 30060について

説明を読み込み中...

次回通過

Passes for default location (London). Set your location on the main map for personalized predictions.

高度履歴

Loading altitude history...

軌道要素

1 1864U 65109A 26106.82622626 .00000071 00000-0 53988-4 0 9994
2 1864 89.0692 241.3554 0110827 41.6034 319.3499 13.79045098 27649
Epoch: Apr 16, 2026 • Age: 18 hours

現在のステータス

高度 1048.8 km
速度 7.29 km/s
衛星直下点 -16.59°S, 3.04°E
タイプ other

Most Searched